User: anonymous   Login
Location: Chervonnoye
(48.6000°N, 34.4000°E)
Time: 09:58:01
(UTC+00:00)
Language:

BUGSAT 1 - Orbit

View from above orbital plane
View from above orbital plane
View from above satellite
View from above satellite

Ground track
Ground track

The orbit data is extracted from the following two-line orbital elements,

1 40014U 14033E   21334.91998072  .00001282  00000-0  11917-3 0  9993
2 40014  98.1279 320.5222 0030759 337.0190  22.9653 14.95958162406456
Epoch (UTC): 30 November 2021 22:04:46
Eccentricity: 0.0030759
inclination: 98.1279°
perigee height: 558 km
apogee height: 601 km
right ascension of ascending node: 320.5222°
argument of perigee: 337.0190°
revolutions per day: 14.95958162
mean anomaly at epoch: 22.9653°
orbit number at epoch: 40645

The dashed part of the orbit path shows where the satellite is in the earth's shadow,  

DLR